METAR Formatted Surface Weather Observation
Issued by NWS

Home | Current Version | Previous Version | Text Only | Print | Product List | Glossary On
Versions: 1 2 3 4 5 6 7 8 9 10 11 12 13 14 15 16 17 18 19 20 21 22 23 24 25 26 27 28 29 30 31 32 33 34 35 36 37 38 39 40 41 42 43 44 45 46 47 48 49 50
409
SAUS44 KFWD 070901 COR
MTRNOG
METAR KNOG 070856Z AUTO 06005KT 10SM BKN020 09/09 A3002 RMK AO2
SLP146 6//// T00940089 56006 PNO $



USA.gov is the U.S. government's official web portal to all federal, state and local government web resources and services.